Weather History for Pagosa Springs, CO

Change the Weather History Date:

Wednesday, March 27, 2013

  Actual Average (KDRO) Record (KDRO)
Temperature  
Mean Temperature 44 °F 40 °F  
Max Temperature 57 °F 56 °F 72 °F (1986)
Min Temperature 31 °F 25 °F 3 °F (1984)
Degree Days  
Heating Degree Days 21 25  
Month to date heating degree days 759  
Since 1 July heating degree days 5934  
Cooling Degree Days 0 0  
Month to date cooling degree days 0  
Year to date cooling degree days 0  
Moisture  
Dew Point 15 °F    
Average Humidity 36    
Maximum Humidity 69    
Minimum Humidity 10    
Precipitation  
Precipitation 0.00 in 0.04 in 0.47 in (1970)
Month to date precipitation 1.09  
Year to date precipitation 3.37  
Sea Level Pressure  
Sea Level Pressure 30.10 in    
Wind  
Wind Speed 3 mph (SW)    
Max Wind Speed 17 mph    
Max Gust Speed 25 mph    
Visibility 10 miles    
Events      
T = Trace of Precipitation, MM = Missing Value Source: NWS Daily Summary

Daily Weather History Graph

Daily Weather History Graph

Search for Another Location

Airport:

Trip Planner

Search our weather history database for the weather conditions in past years. The results will help you decide how hot, cold, wet, or windy it might be!

Date:

Astronomy

Mar. 27, 2013 Rise Set
Actual Time 7:00 AM MDT 7:26 PM MDT
Civil Twilight 6:34 AM MDT 7:52 PM MDT
Nautical Twilight 6:04 AM MDT 8:23 PM MDT
Astronomical Twilight 5:32 AM MDT 8:54 PM MDT
Moon 8:11 PM MDT (3/27) 6:54 AM MDT (3/27)
Length of Visible Light 13h 18m
Length of Day
12h 25m
Full, 100% of the Moon is Illuminated
Mar 27
Full
Apr 2
Last Quarter
Apr 10
New
Apr 18
First Quarter
Apr 25
Full

Hourly Weather History & Observations

Time (MDT) Temp. Windchill Dew Point Humidity Pressure Visibility Wind Dir Wind Speed Gust Speed Precip Events Conditions
12:15 AM 37.9 °F - 16.2 °F 41% 30.05 in 10.0 mi Calm Calm - N/A   Mostly Cloudy
12:35 AM 36.0 °F 32.1 °F 17.8 °F 48% 30.06 in 10.0 mi WNW 4.6 mph - N/A   Mostly Cloudy
12:55 AM 38.8 °F - 17.8 °F 43% 30.07 in 10.0 mi Calm Calm - N/A   Overcast
1:15 AM 40.8 °F 38.8 °F 15.3 °F 35% 30.05 in 10.0 mi North 3.5 mph - N/A   Overcast
1:35 AM 37.6 °F - 15.3 °F 40% 30.05 in 10.0 mi Calm Calm - N/A   Overcast
1:55 AM 38.3 °F - 17.2 °F 43% 30.06 in 10.0 mi Calm Calm - N/A   Overcast
2:15 AM 37.6 °F - 19.6 °F 48% 30.07 in 10.0 mi Calm Calm - N/A   Overcast
2:35 AM 38.3 °F 35.9 °F 20.1 °F 48% 30.07 in 10.0 mi NNW 3.5 mph - N/A   Overcast
2:55 AM 40.1 °F - 18.3 °F 42% 30.05 in 10.0 mi Calm Calm - N/A   Overcast
3:15 AM 36.1 °F - 20.3 °F 53% 30.05 in 10.0 mi Calm Calm - N/A   Overcast
3:35 AM 37.4 °F - 21.4 °F 52% 30.06 in 10.0 mi Calm Calm - N/A   Overcast
3:55 AM 38.3 °F 34.8 °F 19.0 °F 46% 30.05 in 10.0 mi East 4.6 mph - N/A   Overcast
4:15 AM 36.0 °F 33.3 °F 23.0 °F 59% 30.06 in 10.0 mi WSW 3.5 mph - N/A   Mostly Cloudy
4:35 AM 34.3 °F - 23.0 °F 63% 30.05 in 10.0 mi Calm Calm - N/A   Mostly Cloudy
4:55 AM 33.3 °F - 21.4 °F 62% 30.06 in 10.0 mi Calm Calm - N/A   Mostly Cloudy
5:15 AM 33.8 °F - 22.3 °F 63% 30.07 in 10.0 mi Calm Calm - N/A   Overcast
5:35 AM 32.9 °F - 23.4 °F 68% 30.07 in 10.0 mi Calm Calm - N/A   Overcast
5:55 AM 34.0 °F - 23.5 °F 66% 30.09 in 10.0 mi Calm Calm - N/A   Overcast
6:15 AM 33.1 °F - 22.1 °F 64% 30.09 in 10.0 mi Calm Calm - N/A   Overcast
6:35 AM 35.4 °F - 21.7 °F 58% 30.09 in 10.0 mi Calm Calm - N/A   Overcast
6:55 AM 32.5 °F - 23.5 °F 69% 30.10 in 10.0 mi Calm Calm - N/A   Overcast
7:15 AM 31.6 °F - 22.6 °F 69% 30.10 in 10.0 mi Calm Calm - N/A   Mostly Cloudy
7:35 AM 32.2 °F - 22.8 °F 68% 30.10 in 10.0 mi Calm Calm - N/A   Clear
7:55 AM 32.9 °F - 23.4 °F 68% 30.11 in 10.0 mi Calm Calm - N/A   Clear
8:15 AM 36.7 °F - 23.9 °F 60% 30.12 in 10.0 mi Calm Calm - N/A   Clear
8:35 AM 39.6 °F - 21.4 °F 48% 30.12 in 10.0 mi Calm Calm - N/A   Clear
8:55 AM 41.4 °F - 20.1 °F 43% 30.13 in 10.0 mi Calm Calm - N/A   Clear
9:15 AM 41.7 °F - 18.3 °F 39% 30.13 in 10.0 mi Calm Calm - N/A   Clear
9:35 AM 43.2 °F - 17.6 °F 36% 30.13 in 10.0 mi Calm Calm - N/A   Clear
9:55 AM 44.2 °F - 18.5 °F 36% 30.13 in 10.0 mi Calm Calm - N/A   Clear
10:15 AM 45.0 °F 43.5 °F 18.9 °F 35% 30.13 in 10.0 mi West 3.5 mph - N/A   Clear
10:35 AM 46.6 °F - 18.7 °F 33% 30.14 in 10.0 mi WSW 3.5 mph - N/A   Clear
10:55 AM 48.2 °F - 17.1 °F 29% 30.14 in 10.0 mi SSW 5.8 mph - N/A   Clear
11:15 AM 49.3 °F - 16.0 °F 27% 30.14 in 10.0 mi South 6.9 mph - N/A   Clear
11:35 AM 50.5 °F - 14.7 °F 24% 30.13 in 10.0 mi South 8.1 mph - N/A   Clear
11:55 AM 52.0 °F - 13.6 °F 22% 30.13 in 10.0 mi SW 5.8 mph 18.4 mph N/A   Clear
12:15 PM 52.2 °F - 10.8 °F 19% 30.13 in 10.0 mi South 10.4 mph - N/A   Clear
12:35 PM 53.4 °F - 10.4 °F 18% 30.12 in 10.0 mi SSW 13.8 mph 17.3 mph N/A   Clear
12:55 PM 54.3 °F - 9.1 °F 16% 30.12 in 10.0 mi SSW 11.5 mph 20.7 mph N/A   Clear
1:15 PM 54.5 °F - 9.9 °F 17% 30.11 in 10.0 mi SSW 11.5 mph 20.7 mph N/A   Clear
1:35 PM 54.7 °F - 9.0 °F 16% 30.11 in 10.0 mi SW 17.3 mph 20.7 mph N/A   Scattered Clouds
1:55 PM 55.4 °F - 5.9 °F 14% 30.10 in 10.0 mi SW 12.7 mph 21.9 mph N/A   Clear
2:15 PM 55.4 °F - 5.9 °F 14% 30.10 in 10.0 mi SSW 9.2 mph 18.4 mph N/A   Clear
2:35 PM 55.6 °F - 8.8 °F 15% 30.09 in 10.0 mi SW 11.5 mph 19.6 mph N/A   Scattered Clouds
2:55 PM 56.1 °F - 9.1 °F 15% 30.09 in 10.0 mi SW 13.8 mph 18.4 mph N/A   Scattered Clouds
3:15 PM 55.8 °F - 5.0 °F 13% 30.09 in 10.0 mi Calm Calm - N/A   Mostly Cloudy
3:35 PM 56.8 °F - 5.9 °F 13% 30.08 in 10.0 mi South 15.0 mph 25.3 mph N/A   Mostly Cloudy
3:55 PM 57.0 °F - 6.3 °F 13% 30.07 in 10.0 mi SSW 6.9 mph 10.4 mph N/A   Scattered Clouds
4:15 PM 56.8 °F - 3.2 °F 12% 30.07 in 10.0 mi SSW 5.8 mph 20.7 mph N/A   Scattered Clouds
4:35 PM 57.0 °F - 4.8 °F 12% 30.07 in 10.0 mi SW 12.7 mph 19.6 mph N/A   Scattered Clouds
4:55 PM 56.7 °F - 0.9 °F 10% 30.07 in 10.0 mi SSW 10.4 mph 17.3 mph N/A   Scattered Clouds
5:15 PM 56.7 °F - 3.6 °F 12% 30.08 in 10.0 mi West 6.9 mph - N/A   Clear
5:35 PM 56.7 °F - 5.9 °F 13% 30.08 in 10.0 mi WSW 12.7 mph 18.4 mph N/A   Clear
5:55 PM 55.8 °F - 2.3 °F 12% 30.08 in 10.0 mi WSW 8.1 mph - N/A   Clear
6:15 PM 55.4 °F - 2.1 °F 12% 30.09 in 10.0 mi WSW 6.9 mph - N/A   Clear
6:35 PM 54.5 °F - 4.6 °F 13% 30.09 in 10.0 mi WSW 10.4 mph - N/A   Clear
6:55 PM 53.6 °F - 5.9 °F 15% 30.09 in 10.0 mi WSW 9.2 mph - N/A   Clear
7:15 PM 52.5 °F - 6.6 °F 16% 30.10 in 10.0 mi WSW 6.9 mph - N/A   Clear
7:35 PM 49.6 °F - 13.8 °F 24% 30.10 in 10.0 mi West 4.6 mph - N/A   Clear
7:55 PM 47.1 °F - 10.4 °F 23% 30.10 in 10.0 mi Calm Calm - N/A   Clear
8:15 PM 46.0 °F - 13.1 °F 27% 30.11 in 10.0 mi Calm Calm - N/A   Clear
8:35 PM 46.2 °F - 13.5 °F 27% 30.12 in 10.0 mi Calm Calm - N/A   Clear
8:55 PM 40.5 °F - 21.9 °F 48% 30.12 in 10.0 mi Calm Calm - N/A   Clear
9:15 PM 39.6 °F - 17.6 °F 41% 30.13 in 10.0 mi Calm Calm - N/A   Clear
9:35 PM 37.9 °F - 20.1 °F 49% 30.14 in 10.0 mi Calm Calm - N/A   Clear
9:55 PM 37.8 °F - 17.8 °F 44% 30.14 in 10.0 mi Calm Calm - N/A   Clear
10:15 PM 38.1 °F - 11.1 °F 33% 30.15 in 10.0 mi Calm Calm - N/A   Clear
10:35 PM 38.7 °F 36.3 °F 14.4 °F 37% 30.15 in 10.0 mi East 3.5 mph - N/A   Clear
10:55 PM 39.0 °F - 12.4 °F 34% 30.15 in 10.0 mi Calm Calm - N/A   Clear
11:15 PM 37.0 °F - 19.2 °F 49% 30.15 in 10.0 mi Calm Calm - N/A   Clear
11:35 PM 35.4 °F - 19.6 °F 53% 30.16 in 10.0 mi Calm Calm - N/A   Clear
11:55 PM 34.3 °F - 21.4 °F 59% 30.16 in 10.0 mi Calm Calm - N/A   Clear